FW2178 Weather Reports


Display with metric or nautical units.
time (UTC)temp
F
wind
direction
speed
MPH
gust
MPH
rain 1hr
in
rain 24hr
in
rain mn
in
humidity
%
barometer
mb
20260507003329 56 140 0.0 0.0 0.00 0.00 0.00 79 1018.7
20260507003115 57 144 0.0 0.0 0.00 0.00 0.00 78 1018.7
20260507002632 57 161 0.0 0.0 0.00 0.00 0.00 78 1019.0
20260507001829 57 144 0.0 0.0 0.00 0.00 0.00 78 1018.7
20260507001618 57 136 0.0 0.0 0.00 0.00 0.00 77 1018.6
20260507000829 57 145 0.0 0.0 0.00 0.00 0.00 79 1018.8
20260507000329 57 143 0.0 0.0 0.00 0.00 0.00 79 1018.5
20260506235829 57 153 0.0 0.0 0.00 0.00 0.00 78 1018.7
20260506235329 57 146 0.0 0.0 0.00 0.00 0.00 77 1018.8
20260506234832 57 140 0.0 0.0 0.00 0.00 0.00 77 1018.7
20260506234330 57 150 0.0 0.0 0.00 0.00 0.00 77 1018.6
20260506233829 57 135 0.0 0.0 0.00 0.00 0.00 77 1018.7
20260506233330 57 143 0.0 0.0 0.00 0.00 0.00 76 1018.8
20260506232931 57 144 0.0 0.0 0.00 0.00 0.00 76 1018.7
20260506232654 57 134 0.0 0.0 0.00 0.00 0.00 76 1018.7
20260506231430 57 157 0.0 0.0 0.00 0.00 0.00 76 1018.7
20260506231401 57 162 0.0 0.0 0.00 0.00 0.00 76 1018.8
20260506230330 57 141 0.0 0.0 0.00 0.00 0.00 76 1018.8
20260506225830 57 151 0.0 0.0 0.00 0.00 0.00 76 1018.6
20260506225330 57 163 0.0 0.0 0.00 0.00 0.00 76 1018.8
20260506225123 57 136 0.0 0.0 0.00 0.00 0.00 75 1018.8
20260506224428 57 119 0.0 0.0 0.00 0.00 0.00 75 1018.6
20260506224401 57 152 0.0 0.0 0.00 0.00 0.00 75 1018.8
20260506223333 57 148 0.0 0.0 0.00 0.00 0.00 75 1018.7
20260506222828 57 153 0.0 0.0 0.00 0.00 0.00 75 1018.9
20260506222328 57 148 0.0 0.0 0.00 0.00 0.00 75 1018.9
20260506221829 57 140 0.0 0.0 0.00 0.00 0.00 75 1019.0
20260506221330 57 138 0.0 0.0 0.00 0.00 0.00 75 1018.9
20260506220830 57 149 0.0 0.0 0.00 0.00 0.00 76 1018.8
20260506220330 57 168 0.0 0.0 0.00 0.00 0.00 76 1018.9
20260506215830 57 143 0.0 0.0 0.00 0.00 0.00 77 1019.1
20260506215619 57 143 0.0 0.0 0.00 0.00 0.00 77 1018.9
20260506214829 57 154 0.0 0.0 0.00 0.00 0.00 76 1019.1
20260506214329 57 142 0.0 0.0 0.00 0.00 0.00 76 1018.9
20260506213829 57 155 0.0 0.0 0.00 0.00 0.00 79 1019.1
20260506213617 57 147 0.0 0.0 0.00 0.00 0.00 79 1019.1
20260506212829 56 142 0.0 0.0 0.00 0.00 0.00 78 1019.0
20260506212330 56 148 0.0 0.0 0.00 0.00 0.00 79 1019.2
20260506211829 56 147 0.0 0.0 0.00 0.00 0.00 79 1019.0
20260506211329 56 142 0.0 0.0 0.00 0.00 0.00 78 1019.0
20260506211114 56 148 0.0 0.0 0.00 0.00 0.00 80 1019.3
20260506210330 56 169 0.0 0.0 0.00 0.00 0.00 79 1019.2
20260506205829 56 138 0.0 0.0 0.00 0.00 0.00 81 1019.2
20260506205331 56 130 0.0 0.0 0.00 0.00 0.00 82 1018.9
20260506204823 56 140 0.0 0.0 0.00 0.00 0.00 81 1019.1
20260506204612 56 143 0.0 0.0 0.00 0.00 0.00 82 1019.0
20260506203819 56 146 0.0 0.0 0.00 0.00 0.00 82 1019.0
20260506203318 56 149 0.0 0.0 0.00 0.00 0.00 82 1018.9
20260506202818 56 159 0.0 0.0 0.00 0.00 0.00 83 1018.9
20260506202319 56 140 0.0 0.0 0.00 0.00 0.00 84 1019.0
20260506201818 56 144 0.0 0.0 0.00 0.00 0.00 83 1018.9
20260506201318 56 140 0.0 0.0 0.00 0.00 0.00 83 1019.1
20260506201108 56 140 0.0 0.0 0.00 0.00 0.00 84 1019.0
20260506200319 55 147 0.0 0.0 0.00 0.00 0.00 85 1019.0
20260506195818 55 142 0.0 0.0 0.00 0.00 0.00 86 1019.0
20260506195317 55 145 0.0 0.0 0.00 0.00 0.00 87 1019.1
20260506195110 55 144 0.0 0.0 0.00 0.00 0.00 88 1018.9
20260506194413 55 143 0.0 0.0 0.00 0.00 0.00 88 1018.8
20260506193318 55 140 0.0 0.0 0.00 0.00 0.00 89 1018.8
20260506192818 54 156 0.0 0.0 0.00 0.00 0.00 91 1018.7
20260506192319 54 151 0.0 0.0 0.00 0.00 0.00 91 1019.0
20260506191906 54 152 0.0 0.0 0.00 0.00 0.00 91 1018.9
20260506191848 54 150 0.0 0.0 0.00 0.00 0.00 91 1019.0
20260506190818 54 158 0.0 0.0 0.00 0.00 0.00 91 1018.8
20260506190646 55 147 0.0 0.0 0.00 0.00 0.00 90 1018.7
20260506185818 55 138 0.0 0.0 0.00 0.00 0.00 90 1018.9
20260506185319 55 138 0.0 0.0 0.00 0.00 0.00 90 1018.6
20260506185112 55 166 0.0 0.0 0.00 0.00 0.00 90 1018.6
20260506184319 54 156 0.0 0.0 0.00 0.00 0.00 91 1018.7
20260506183923 54 156 0.0 0.0 0.00 0.00 0.00 92 1018.6
20260506183901 54 156 0.0 0.0 0.00 0.00 0.00 91 1018.9
20260506182818 54 142 0.0 0.0 0.00 0.00 0.00 92 1018.6
20260506182319 54 152 0.0 0.0 0.00 0.00 0.00 93 1018.4
20260506181817 54 148 0.0 0.0 0.00 0.00 0.00 93 1018.6
20260506181317 54 146 0.0 0.0 0.00 0.00 0.00 93 1018.4
20260506181109 54 142 0.0 0.0 0.00 0.00 0.00 93 1018.8
20260506180318 54 141 0.0 0.0 0.00 0.00 0.00 92 1018.8
20260506180122 54 157 0.0 0.0 0.00 0.00 0.00 92 1018.7
20260506175318 54 144 0.0 0.0 0.00 0.00 0.00 91 1018.6
20260506174819 54 157 0.0 0.0 0.00 0.00 0.00 91 1018.4
20260506174319 54 145 0.0 0.0 0.00 0.00 0.00 91 1018.1
20260506173817 55 143 0.0 0.0 0.00 0.00 0.00 90 1018.3
20260506173319 55 150 0.0 0.0 0.00 0.00 0.00 88 1018.3
20260506172820 55 143 0.0 0.0 0.00 0.00 0.00 88 1018.2
20260506172318 55 146 0.0 0.0 0.00 0.00 0.00 88 1018.5
20260506171817 55 134 0.0 0.0 0.00 0.00 0.00 88 1018.4
20260506171317 55 153 0.0 0.0 0.00 0.00 0.00 89 1018.6
20260506170818 54 160 0.0 0.0 0.00 0.00 0.00 89 1018.4
20260506170323 54 165 0.0 0.0 0.00 0.00 0.00 89 1018.4
20260506165821 55 160 0.0 0.0 0.00 0.00 0.00 89 1018.5
20260506165318 55 154 0.0 0.0 0.00 0.00 0.00 89 1018.4
20260506164818 55 159 0.0 0.0 0.00 0.00 0.00 89 1018.6
20260506164319 55 159 0.0 0.0 0.00 0.00 0.00 89 1018.3
20260506163818 54 150 0.0 0.0 0.00 0.00 0.00 89 1018.4
20260506163319 54 143 0.0 0.0 0.00 0.00 0.00 89 1018.3
20260506162817 55 151 0.0 0.0 0.00 0.00 0.00 89 1018.3
20260506162607 55 163 0.0 0.0 0.00 0.00 0.00 90 1018.3
20260506161818 55 168 0.0 0.0 0.00 0.00 0.00 90 1018.0
20260506161612 54 158 0.0 0.0 0.00 0.00 0.00 90 1018.0
20260506160817 55 143 0.0 0.0 0.00 0.00 0.00 90 1018.1
20260506160318 54 148 0.0 0.0 0.00 0.00 0.00 91 1017.8
20260506155818 55 141 0.0 0.0 0.00 0.00 0.00 91 1017.9
20260506155319 54 130 0.0 0.0 0.00 0.00 0.00 92 1017.6
20260506154818 54 143 0.0 0.0 0.00 0.00 0.00 92 1017.6
20260506154318 54 141 0.0 0.0 0.00 0.00 0.00 92 1017.8
20260506153817 54 153 0.0 0.0 0.00 0.00 0.00 92 1017.8
20260506153315 54 151 0.0 0.0 0.00 0.00 0.00 92 1018.0
20260506153108 54 151 0.0 0.0 0.00 0.00 0.00 93 1018.1
20260506152604 53 139 0.0 0.0 0.00 0.00 0.00 93 1018.0
20260506151809 53 141 0.0 0.0 0.00 0.00 0.00 94 1018.0
20260506151604 53 141 0.0 0.0 0.00 0.00 0.00 94 1018.2
20260506150810 53 142 0.0 0.0 0.00 0.00 0.00 95 1018.2
20260506150310 53 142 0.0 0.0 0.00 0.00 0.00 95 1018.1
20260506145810 53 142 0.0 0.0 0.00 0.00 0.00 95 1017.8
20260506145559 53 141 0.0 0.0 0.00 0.00 0.00 95 1017.9
20260506144810 53 142 0.0 0.0 0.00 0.00 0.00 95 1017.6
20260506144311 53 142 0.0 0.0 0.00 0.00 0.00 95 1017.6
20260506143809 53 139 0.0 0.0 0.00 0.00 0.00 95 1018.0
20260506143309 53 139 0.0 0.0 0.00 0.00 0.00 95 1017.9
20260506142811 53 139 0.0 0.0 0.00 0.00 0.00 95 1017.9
20260506142310 53 139 0.0 0.0 0.00 0.00 0.00 95 1017.8
20260506141811 53 139 0.0 0.0 0.00 0.00 0.00 95 1017.7
20260506141310 53 139 0.0 0.0 0.00 0.00 0.00 95 1017.6
20260506140809 53 139 0.0 0.0 0.00 0.00 0.00 95 1017.6
20260506140312 53 139 0.0 0.0 0.00 0.00 0.00 95 1017.7
20260506140119 53 139 0.0 0.0 0.00 0.00 0.00 95 1017.7
20260506135607 53 138 0.0 0.0 0.00 0.00 0.00 95 1017.6
20260506134809 53 138 0.0 0.0 0.00 0.00 0.00 94 1017.7
20260506134310 53 143 0.0 0.0 0.00 0.00 0.00 93 1017.7
20260506133808 53 144 0.0 0.0 0.00 0.00 0.00 93 1017.8
20260506133312 53 144 0.0 0.0 0.00 0.00 0.00 93 1017.7
20260506132809 53 144 0.0 0.0 0.00 0.00 0.00 92 1017.5
20260506132607 53 144 0.0 0.0 0.00 0.00 0.00 92 1017.5
20260506131810 53 145 0.0 0.0 0.00 0.00 0.00 92 1017.5
20260506131616 53 145 0.0 0.0 0.00 0.00 0.00 92 1017.7
20260506130810 53 145 0.0 0.0 0.00 0.00 0.00 92 1017.3
20260506130314 53 145 0.0 0.0 0.00 0.00 0.00 93 1017.1
20260506130156 53 144 0.0 0.0 0.00 0.00 0.00 94 1017.2
20260506125309 53 144 0.0 0.0 0.00 0.00 0.00 93 1017.1
20260506124811 53 144 0.0 0.0 0.00 0.00 0.00 93 1017.0
20260506124309 53 144 0.0 0.0 0.00 0.00 0.00 93 1017.2
20260506123810 53 144 0.0 0.0 0.00 0.00 0.00 92 1017.0
20260506123605 53 146 0.0 0.0 0.00 0.00 0.00 93 1017.2
20260506122808 53 146 0.0 0.0 0.00 0.00 0.00 92 1017.2
20260506122310 53 146 0.0 0.0 0.00 0.00 0.00 93 1016.8
20260506121808 53 146 0.0 0.0 0.00 0.00 0.00 93 1016.9
20260506121559 53 146 0.0 0.0 0.00 0.00 0.00 93 1016.6
20260506120808 53 146 0.0 0.0 0.00 0.00 0.00 92 1016.9
20260506120309 53 146 0.0 0.0 0.00 0.00 0.00 93 1017.0
20260506115809 53 146 0.0 0.0 0.00 0.00 0.00 92 1016.7
20260506115309 53 146 0.0 0.0 0.00 0.00 0.00 92 1016.7
20260506114808 53 146 0.0 0.0 0.00 0.00 0.00 92 1017.0
20260506114308 53 145 0.0 0.0 0.00 0.00 0.00 93 1016.7
20260506114057 53 146 0.0 0.0 0.00 0.00 0.00 94 1016.9
20260506113309 53 149 0.0 0.0 0.00 0.00 0.00 95 1016.7
20260506113102 53 146 0.0 0.0 0.00 0.00 0.00 96 1016.6
20260506112308 52 146 0.0 0.0 0.00 0.00 0.00 97 1016.6
20260506111808 52 142 0.0 0.0 0.00 0.00 0.00 98 1016.6
20260506111309 52 142 0.0 0.0 0.00 0.00 0.00 98 1016.7
20260506110807 52 144 0.0 0.0 0.00 0.00 0.00 99 1016.4
20260506110309 52 143 0.0 0.0 0.00 0.00 0.00 99 1016.3
20260506105813 52 143 0.0 0.0 0.00 0.00 0.00 99 1016.4
20260506105310 52 143 0.0 0.0 0.00 0.00 0.00 99 1016.6
20260506104809 51 143 0.0 0.0 0.00 0.00 0.00 99 1016.4
20260506104309 51 143 0.0 0.0 0.00 0.00 0.00 99 1016.2
20260506103807 51 143 0.0 0.0 0.00 0.00 0.00 99 1016.3
20260506103308 50 143 0.0 0.0 0.00 0.00 0.00 99 1016.2
20260506103057 50 142 0.0 0.0 0.00 0.00 0.00 99 1016.3
20260506102308 50 142 0.0 0.0 0.00 0.00 0.00 99 1016.3
20260506102052 50 142 0.0 0.0 0.00 0.00 0.00 99 1016.3
20260506101554 50 143 0.0 0.0 0.00 0.00 0.00 99 1016.4
20260506100808 50 144 0.0 0.0 0.00 0.00 0.00 99 1016.0
20260506100309 50 144 0.0 0.0 0.00 0.00 0.00 99 1016.0
20260506095807 50 143 0.0 0.0 0.00 0.00 0.00 99 1016.0
20260506095309 50 144 0.0 0.0 0.00 0.00 0.00 99 1016.1
20260506094809 50 144 0.0 0.0 0.00 0.00 0.00 99 1015.8
20260506094309 49 144 0.0 0.0 0.00 0.00 0.00 99 1016.0
20260506093809 49 144 0.0 0.0 0.00 0.00 0.00 99 1015.8
20260506093309 49 143 0.0 0.0 0.00 0.00 0.00 99 1015.9
20260506093112 50 143 0.0 0.0 0.00 0.00 0.00 99 1015.9
20260506092309 50 143 0.0 0.0 0.00 0.00 0.00 99 1015.9
20260506091810 50 144 0.0 0.0 0.00 0.00 0.00 99 1015.8
20260506091557 50 144 0.0 0.0 0.00 0.00 0.00 99 1015.9
20260506090807 50 144 0.0 0.0 0.00 0.00 0.00 99 1015.9
20260506090308 50 144 0.0 0.0 0.00 0.00 0.00 99 1016.0
20260506085808 50 144 0.0 0.0 0.00 0.00 0.00 99 1015.8
20260506085559 50 143 0.0 0.0 0.00 0.00 0.00 99 1015.8
20260506084808 50 143 0.0 0.0 0.00 0.00 0.00 99 1015.6
20260506084337 51 143 0.0 0.0 0.00 0.00 0.00 99 1015.7
20260506083345 51 144 0.0 0.0 0.00 0.00 0.00 99 1015.4
20260506082308 51 144 0.0 0.0 0.00 0.00 0.00 99 1015.4
20260506081808 51 144 0.0 0.0 0.00 0.00 0.00 98 1015.2
20260506081309 52 144 0.0 0.0 0.00 0.00 0.00 99 1015.2
20260506080808 52 144 0.0 0.0 0.00 0.00 0.00 98 1015.2
20260506080339 52 144 0.0 0.0 0.00 0.00 0.00 98 1015.2
20260506073307 52 144 0.0 0.0 0.00 0.00 0.00 98 1015.1
20260506072808 52 144 0.0 0.0 0.00 0.00 0.00 98 1015.2
20260506072307 52 144 0.0 0.0 0.00 0.00 0.00 98 1015.1
20260506071808 52 144 0.0 0.0 0.00 0.00 0.00 98 1015.0
20260506071309 52 144 0.0 0.0 0.00 0.00 0.00 98 1015.0
20260506071059 52 144 0.0 0.0 0.00 0.00 0.00 97 1014.9
20260506070308 53 144 0.0 0.0 0.00 0.00 0.00 97 1014.8
20260506062308 53 144 0.0 0.0 0.00 0.00 0.00 96 1014.9
20260506061810 53 144 0.0 0.0 0.00 0.00 0.00 96 1014.8
20260506061309 53 144 0.0 0.0 0.00 0.00 0.00 96 1014.4
20260506060808 53 144 0.0 0.0 0.00 0.00 0.00 96 1014.5
20260506060307 53 144 0.0 0.0 0.00 0.00 0.00 96 1014.6
20260506051308 54 144 0.0 0.0 0.00 0.00 0.00 94 1014.1
20260506050809 54 144 0.0 0.0 0.00 0.00 0.00 94 1014.2
20260506050312 54 144 0.0 0.0 0.00 0.00 0.00 93 1013.9
20260506050105 55 144 0.0 0.0 0.00 0.00 0.00 93 1013.8
20260506044808 55 144 0.0 0.0 0.00 0.00 0.00 92 1013.8
20260506044352 55 144 0.0 0.0 0.00 0.00 0.00 91 1014.0
20260506044333 55 144 0.0 0.0 0.00 0.00 0.00 92 1013.7
20260506043555 55 144 0.0 0.0 0.00 0.00 0.00 91 1013.8
20260506042809 56 144 0.0 0.0 0.00 0.00 0.00 91 1013.7
20260506042309 56 144 0.0 0.0 0.00 0.00 0.00 90 1013.9
20260506041809 56 144 0.0 0.0 0.00 0.00 0.00 90 1013.8
20260506041307 56 144 0.0 0.0 0.00 0.00 0.00 90 1013.6
20260506040807 56 144 0.0 0.0 0.00 0.00 0.00 90 1013.7
20260506040553 56 144 0.0 0.0 0.00 0.00 0.00 90 1013.7
20260506035808 56 144 0.0 0.0 0.00 0.00 0.00 90 1013.8
20260506035306 56 144 0.0 0.0 0.00 0.00 0.00 90 1013.7
20260506034802 56 143 0.0 0.0 0.00 0.00 0.00 90 1013.8
20260506034553 57 143 0.0 0.0 0.00 0.00 0.00 89 1013.7
20260506034051 57 143 0.0 0.0 0.00 0.00 0.00 89 1013.7
20260506033303 57 143 0.0 0.0 0.00 0.00 0.00 88 1013.7
20260506032802 57 143 0.0 0.0 0.00 0.00 0.00 88 1013.6
20260506032305 57 143 0.0 0.0 0.00 0.00 0.00 88 1013.4
20260506031802 58 143 0.0 0.0 0.00 0.00 0.00 88 1013.6
20260506031555 58 143 0.0 0.0 0.00 0.00 0.00 88 1013.4
20260506030801 58 143 0.0 0.0 0.00 0.00 0.00 87 1013.4
20260506030548 58 143 0.0 0.0 0.00 0.00 0.00 87 1013.5
20260506025802 58 143 0.0 0.0 0.00 0.00 0.00 86 1013.2
20260506025305 58 143 0.0 0.0 0.00 0.00 0.00 86 1013.3
20260506024802 58 143 0.0 0.0 0.00 0.00 0.00 86 1013.3
20260506024302 59 143 0.0 0.0 0.00 0.00 0.00 86 1013.4
20260506023802 59 143 0.0 0.0 0.00 0.00 0.00 84 1013.3
20260506023302 59 143 0.0 0.0 0.00 0.00 0.00 85 1013.3
20260506022802 59 143 0.0 0.0 0.00 0.00 0.00 85 1013.4
20260506022305 59 143 0.0 0.0 0.00 0.00 0.00 85 1013.2
20260506021802 59 143 0.0 0.0 0.00 0.00 0.00 85 1013.1
20260506021302 59 143 0.0 0.0 0.00 0.00 0.00 85 1013.4
20260506020801 60 143 0.0 0.0 0.00 0.00 0.00 85 1013.0
20260506020553 60 143 0.0 0.0 0.00 0.00 0.00 84 1013.1
20260506015802 60 143 0.0 0.0 0.00 0.00 0.00 84 1013.1
20260506015305 60 143 0.0 0.0 0.00 0.00 0.00 83 1013.2
20260506014803 60 145 0.0 0.0 0.00 0.00 0.00 83 1013.1
20260506014302 60 145 0.0 0.0 0.00 0.00 0.00 83 1013.1
20260506013802 60 136 0.0 0.0 0.00 0.00 0.00 82 1013.1
20260506013302 60 132 0.0 0.0 0.00 0.00 0.00 82 1013.2
20260506013100 61 112 0.0 0.0 0.00 0.00 0.00 81 1013.2
20260506012307 61 146 0.0 0.0 0.00 0.00 0.00 80 1013.5
20260506011802 61 145 0.0 0.0 0.00 0.00 0.00 82 1013.2
20260506011302 61 130 0.0 0.0 0.00 0.00 0.00 80 1013.2
20260506011055 62 148 0.0 0.0 0.00 0.00 0.00 79 1013.3
20260506010303 62 128 0.0 0.0 0.00 0.00 0.00 78 1013.1
20260506005801 61 135 0.0 0.0 0.00 0.00 0.00 78 1013.2
20260506005302 61 130 0.0 0.0 0.00 0.00 0.00 80 1013.3
20260506004801 61 160 0.0 0.0 0.00 0.00 0.00 80 1013.2
20260506004302 61 141 0.0 0.0 0.00 0.00 0.00 80 1013.0
20260506003802 61 140 0.0 0.0 0.00 0.00 0.00 80 1013.3